When you browse on this site, cookies collect data to enhance your experience and personalize the content and advertising you see.
Visit our Privacy Policy to learn more. By continuing to use the site, you agree to this use of cookies and data.
  • In Hungary
  • List of Countries
  • For 7 days
  • Water Temperature
  • Satellite Maps
  • Weather Map
  • News
  • Weather Widgets
  • user-avatar
    Login

    Hourly Weather Dzhizan

    Today, 12 December, Wednesday

    Time Temperature Precipitation Wind Pressure Humidity
    00:00 +30°C° 0.1 mm 2 mps 762 mmHg 74%
    01:00 +30°C° 0.1 mm 2 mps 762 mmHg 74%
    02:00 +30°C° 0.1 mm 1 mps 762 mmHg 75%
    03:00 +29°C° 0 mm 1 mps 761 mmHg 76%
    04:00 +29°C° 0.2 mm 1 mps 762 mmHg 76%
    05:00 +29°C° 0.2 mm 1 mps 762 mmHg 77%
    06:00 +27°C° 0.2 mm 0 mps 762 mmHg 77%
    07:00 +27°C° 0.1 mm 0 mps 762 mmHg 75%
    08:00 +28°C° 0.1 mm 0 mps 762 mmHg 73%
    09:00 +30°C° 0.1 mm 1 mps 763 mmHg 71%
    10:00 +31°C° 0 mm 1 mps 762 mmHg 68%
    11:00 +32°C° 0 mm 2 mps 762 mmHg 64%
    12:00 +32°C° 0 mm 2 mps 762 mmHg 61%
    13:00 +33°C° 0 mm 3 mps 761 mmHg 61%
    14:00 +33°C° 0 mm 3 mps 761 mmHg 62%
    15:00 +33°C° 0 mm 4 mps 761 mmHg 63%
    16:00 +33°C° 0 mm 3 mps 761 mmHg 65%
    17:00 +31°C° 0 mm 3 mps 761 mmHg 67%
    18:00 +31°C° 0 mm 3 mps 761 mmHg 69%
    19:00 +31°C° 0.1 mm 3 mps 762 mmHg 70%
    20:00 +31°C° 0.1 mm 2 mps 762 mmHg 71%
    21:00 +30°C° 0.1 mm 2 mps 762 mmHg 72%
    22:00 +30°C° 0.9 mm 2 mps 762 mmHg 72%
    23:00 +30°C° 0.9 mm 2 mps 762 mmHg 73%

    Tomorrow, 13 December, Thursday

    Time Temperature Precipitation Wind Pressure Humidity
    00:00 +30°C° 0.9 mm 2 mps 763 mmHg 73%
    01:00 +29°C° 1.6 mm 2 mps 762 mmHg 73%
    02:00 +29°C° 1.6 mm 2 mps 762 mmHg 73%
    03:00 +29°C° 1.6 mm 1 mps 762 mmHg 72%
    04:00 +29°C° 0.9 mm 1 mps 762 mmHg 72%
    05:00 +29°C° 0.9 mm 1 mps 762 mmHg 72%
    06:00 +29°C° 0.9 mm 1 mps 762 mmHg 71%
    07:00 +29°C° 0.4 mm 1 mps 763 mmHg 69%
    08:00 +30°C° 0.4 mm 2 mps 763 mmHg 66%
    09:00 +30°C° 0.4 mm 2 mps 764 mmHg 63%
    10:00 +31°C° 0 mm 2 mps 763 mmHg 61%
    11:00 +33°C° 0 mm 3 mps 763 mmHg 58%
    12:00 +33°C° 0 mm 3 mps 763 mmHg 55%
    13:00 +33°C° 0 mm 3 mps 762 mmHg 55%
    14:00 +34°C° 0 mm 3 mps 762 mmHg 55%
    15:00 +34°C° 0 mm 3 mps 761 mmHg 55%
    16:00 +33°C° 0 mm 3 mps 761 mmHg 57%
    17:00 +33°C° 0 mm 3 mps 761 mmHg 59%
    18:00 +31°C° 0 mm 3 mps 761 mmHg 62%
    19:00 +31°C° 0 mm 2 mps 762 mmHg 63%
    20:00 +31°C° 0 mm 2 mps 762 mmHg 64%
    21:00 +31°C° 0 mm 1 mps 763 mmHg 65%
    22:00 +30°C° 0.1 mm 1 mps 763 mmHg 66%
    23:00 +30°C° 0.1 mm 1 mps 763 mmHg 66%

    Day after tomorrow, 14 December, Friday

    Time Temperature Precipitation Wind Pressure Humidity
    00:00 +30°C° 0.1 mm 1 mps 762 mmHg 67%
    01:00 +30°C° 0.2 mm 1 mps 762 mmHg 67%
    02:00 +30°C° 0.2 mm 1 mps 762 mmHg 68%
    03:00 +30°C° 0.2 mm 1 mps 761 mmHg 68%
    04:00 +30°C° 0 mm 1 mps 762 mmHg 69%
    05:00 +29°C° 0 mm 1 mps 762 mmHg 70%
    06:00 +29°C° 0 mm 1 mps 762 mmHg 71%
    07:00 +30°C° 0 mm 1 mps 762 mmHg 69%
    08:00 +30°C° 0 mm 2 mps 763 mmHg 67%
    09:00 +31°C° 0 mm 2 mps 763 mmHg 66%
    10:00 +31°C° 0 mm 3 mps 763 mmHg 64%
    11:00 +33°C° 0 mm 3 mps 763 mmHg 62%
    12:00 +33°C° 0 mm 4 mps 762 mmHg 60%
    13:00 +33°C° 0 mm 4 mps 762 mmHg 61%
    14:00 +33°C° 0 mm 4 mps 761 mmHg 62%
    15:00 +33°C° 0 mm 5 mps 760 mmHg 63%
    16:00 +33°C° 0 mm 4 mps 761 mmHg 64%
    17:00 +32°C° 0 mm 4 mps 761 mmHg 66%
    18:00 +31°C° 0 mm 3 mps 761 mmHg 67%
    19:00 +31°C° 0 mm 3 mps 762 mmHg 68%
    20:00 +30°C° 0 mm 2 mps 762 mmHg 68%
    21:00 +30°C° 0 mm 1 mps 763 mmHg 69%
    22:00 +30°C° 0.1 mm 2 mps 762 mmHg 70%
    23:00 +30°C° 0.1 mm 2 mps 762 mmHg 70%

    15 December, Saturday

    Time Temperature Precipitation Wind Pressure Humidity
    00:00 +30°C° 0.1 mm 2 mps 762 mmHg 71%
    01:00 +30°C° 0.2 mm 2 mps 761 mmHg 70%
    02:00 +30°C° 0.2 mm 3 mps 761 mmHg 70%
    03:00 +30°C° 0.2 mm 3 mps 760 mmHg 70%
    04:00 +30°C° 0 mm 3 mps 761 mmHg 70%
    05:00 +29°C° 0 mm 2 mps 761 mmHg 70%
    06:00 +29°C° 0 mm 2 mps 761 mmHg 70%
    07:00 +30°C° 0 mm 3 mps 762 mmHg 67%
    08:00 +30°C° 0 mm 3 mps 762 mmHg 64%
    09:00 +31°C° 0 mm 3 mps 763 mmHg 62%
    10:00 +31°C° 0 mm 3 mps 762 mmHg 59%
    11:00 +33°C° 0 mm 4 mps 762 mmHg 57%
    12:00 +34°C° 0 mm 4 mps 761 mmHg 54%
    13:00 +34°C° 0 mm 4 mps 761 mmHg 55%
    14:00 +34°C° 0 mm 4 mps 760 mmHg 56%
    15:00 +34°C° 0 mm 5 mps 760 mmHg 57%
    16:00 +33°C° 0 mm 4 mps 760 mmHg 60%
    17:00 +33°C° 0 mm 4 mps 760 mmHg 64%
    18:00 +31°C° 0 mm 3 mps 760 mmHg 67%
    19:00 +31°C° 0 mm 3 mps 761 mmHg 67%
    20:00 +31°C° 0 mm 3 mps 761 mmHg 68%
    21:00 +31°C° 0 mm 3 mps 762 mmHg 69%
    22:00 +30°C° 0.1 mm 3 mps 761 mmHg 69%
    23:00 +30°C° 0.1 mm 3 mps 761 mmHg 70%

    16 December, Sunday

    Time Temperature Precipitation Wind Pressure Humidity
    00:00 +30°C° 0.1 mm 3 mps 761 mmHg 70%
    01:00 +30°C° 0.1 mm 3 mps 761 mmHg 69%
    02:00 +30°C° 0.1 mm 3 mps 761 mmHg 69%
    03:00 +30°C° 0.1 mm 3 mps 760 mmHg 68%
    04:00 +30°C° 0 mm 3 mps 761 mmHg 68%
    05:00 +30°C° 0 mm 3 mps 761 mmHg 68%
    06:00 +29°C° 0 mm 3 mps 761 mmHg 67%
    07:00 +30°C° 0 mm 3 mps 762 mmHg 63%
    08:00 +31°C° 0 mm 3 mps 762 mmHg 59%
    09:00 +31°C° 0 mm 3 mps 763 mmHg 55%
    10:00 +33°C° 0 mm 3 mps 762 mmHg 51%
    11:00 +34°C° 0 mm 3 mps 762 mmHg 46%
    12:00 +35°C° 0 mm 4 mps 761 mmHg 41%
    13:00 +35°C° 0 mm 4 mps 761 mmHg 44%
    14:00 +35°C° 0 mm 5 mps 760 mmHg 48%
    15:00 +34°C° 0 mm 6 mps 760 mmHg 51%
    16:00 +34°C° 0 mm 5 mps 760 mmHg 56%
    17:00 +33°C° 0 mm 4 mps 760 mmHg 61%
    18:00 +32°C° 0 mm 4 mps 761 mmHg 66%
    19:00 +31°C° 0 mm 3 mps 761 mmHg 68%
    20:00 +31°C° 0 mm 3 mps 761 mmHg 69%
    21:00 +31°C° 0 mm 3 mps 762 mmHg 70%
    22:00 +31°C° 0 mm 3 mps 762 mmHg 70%
    23:00 +30°C° 0 mm 3 mps 761 mmHg 71%

    17 December, Monday

    Time Temperature Precipitation Wind Pressure Humidity
    00:00 +30°C° 0 mm 3 mps 761 mmHg 72%
    01:00 +30°C° 0 mm 3 mps 761 mmHg 72%
    02:00 +30°C° 0 mm 3 mps 761 mmHg 72%
    03:00 +30°C° 0 mm 3 mps 760 mmHg 72%
    04:00 +29°C° 0 mm 3 mps 761 mmHg 71%
    05:00 +29°C° 0 mm 3 mps 761 mmHg 71%
    06:00 +29°C° 0 mm 3 mps 761 mmHg 70%
    07:00 +30°C° 0 mm 3 mps 761 mmHg 66%
    08:00 +30°C° 0 mm 4 mps 761 mmHg 62%
    09:00 +32°C° 0 mm 4 mps 762 mmHg 58%
    10:00 +33°C° 0 mm 5 mps 761 mmHg 56%
    11:00 +33°C° 0 mm 5 mps 761 mmHg 54%
    12:00 +34°C° 0 mm 6 mps 760 mmHg 51%
    13:00 +34°C° 0 mm 6 mps 760 mmHg 54%
    14:00 +34°C° 0 mm 6 mps 759 mmHg 56%
    15:00 +34°C° 0 mm 6 mps 759 mmHg 58%
    16:00 +33°C° 0 mm 6 mps 759 mmHg 61%
    17:00 +33°C° 0 mm 5 mps 759 mmHg 64%
    18:00 +32°C° 0 mm 4 mps 760 mmHg 67%
    19:00 +32°C° 0 mm 4 mps 760 mmHg 67%
    20:00 +32°C° 0 mm 4 mps 760 mmHg 67%
    21:00 +31°C° 0 mm 3 mps 761 mmHg 67%
    22:00 +32°C° 0 mm 4 mps 761 mmHg 67%
    23:00 +32°C° 0 mm 4 mps 760 mmHg 67%
    Show more